Starlink 1497

operational
NORAD ID: 45781 Int'l Des: 2020-038 Owner: SPXS Country: US Constellation: starlink
LEOCIRCULAR

Über Starlink 1497

Beschreibung wird geladen...

Live-Position

3D-Globus wird geladen...

Nächste Überflüge

Höhenverlauf

Altitude vs Time

uPlot chart will show altitude changes over time

Zweizeiliger Elementsatz

1 45781U 20038BD 25353.91668980 .00181837 00000-0 14494-2 0 9995
2 45781 53.0323 120.5413 0001026 78.1654 359.7028 15.70097905 6002
Epoch: 19. Dez. 2025 • Age: 9 hours

Aktueller Status

Höhe 362.3 km
Geschwindigkeit 7.70 km/s
Subsatellitenpunkt 44.78°N, 51.43°E
Startdatum 13. Juni 2020
Alter 5.5 years
Typ internet

Technische Details

Klassifizierung Payload
Masse 260.00 kg
Trockenmasse 248.00 kg
Gesamtmasse 260.00 kg
Länge 0.20 m
Durchmesser 2.80 m
Spannweite 9.00 m
Form Box + pan
Hersteller SPXS
Bus-Typ Starlink
Phasenstatus In Orbit
Besitzer/Staat SPXS/US

Große Konstellationen

Loading constellations...